Regional Weather Roundup
Issued by NWS Spokane, WA

Home | Current Version | Previous Version | Text Only | Print | Product List | Glossary On
Versions: 1 2 3 4 5 6 7 8 9 10 11 12 13 14 15 16 17 18 19 20 21 22 23 24 25 26 27 28 29 30 31 32 33 34 35 36 37 38 39 40 41 42 43 44 45 46 47 48 49 50
000
NZUS01 KOTX 221625
RWROTX

Eastern Washington/Northern Idaho Roundup
National Weather Service, Spokane WA
900 AM PDT SUN APR 22 2018

Note: "fair" indicated few or no clouds below 12,000 feet with no
significant weather and/or obstructions to visibility.

...Northeast Washington and Northern Idaho Panhandle...

CITY           SKY/WX    TMP DP  RH WIND       PRES   REMARKS
Spokane Intl   MOSUNNY   41  28  60 CALM      30.27S
Spokane Downto SUNNY     43  26  51 CALM      30.29S
Coeur d Alene  SUNNY     43  26  51 SE5       30.28S
Deer Park      SUNNY     41  27  57 S6        30.29R
Bonners Ferry  FAIR      45  27  49 W6        30.25F

...Southeast Washington and southern Idaho Panhandle...

CITY           SKY/WX    TMP DP  RH WIND       PRES   REMARKS
Walla Walla    MOSUNNY   49  30  48 CALM      30.31F
Pullman/Moscow SUNNY     44  29  55 W7        30.29S
Lewiston       SUNNY     46  31  55 SE3       30.30S
Lowell           N/A     43  34  70 CALM      30.31F
Grangeville    FAIR      43  28  56 NE3       30.25S

...Columbia Basin...

CITY           SKY/WX    TMP DP  RH WIND       PRES   REMARKS
Ephrata        CLOUDY    50  24  36 NW16      30.30S
Moses Lake     CLOUDY    50  27  40 N8        30.31S
Pasco          MOSUNNY   47  36  65 CALM      30.35S
Richland       MOSUNNY   51  32  47 CALM      30.35S
Hermiston      SUNNY     45  34  65 CALM      30.34R
Pendleton      SUNNY     44  30  57 S3        30.31R

...East Slopes Cascades...

CITY           SKY/WX    TMP DP  RH WIND       PRES   REMARKS
The Dalles     SUNNY     48  36  63 N10       30.36R
Yakima         CLOUDY    49  29  46 NW3       30.34S
Ellensburg     CLOUDY    46  30  53 VRB3      30.31S
Wenatchee      CLOUDY    46  27  47 NW14      30.33S
Winthrop       PTSUNNY   41  25  53 CALM      30.35S
Omak           CLOUDY    48  30  49 N7        30.34R
Sunnyside      PTSUNNY   44  31  61 W3        30.34S

...Southern British Columbia...

CITY           SKY/WX    TMP DP  RH WIND       PRES   REMARKS
Penticton      PTSUNNY   46  30  53 N5        30.36S
Castlegar      PTSUNNY   41  32  70 CALM      30.30F
Cranbrook      CLOUDY    41  28  60 NE7       30.22S
Osoyoos          N/A     50  30  46 NW5         N/A
Creston          N/A     43  34  70 W3          N/A

...Western Montana...

CITY           SKY/WX    TMP DP  RH WIND       PRES   REMARKS
Kalispell      SUNNY     46  24  42 SE5       30.21S
Missoula       MOSUNNY   41  27  57 CALM      30.23S

...Neighboring Cities...

CITY           SKY/WX    TMP DP  RH WIND       PRES   REMARKS
Seattle        CLOUDY    46  38  73 N13       30.41S
Portland       MOSUNNY   47  39  74 N3        30.38S
Boise          SUNNY     47  27  45 NW9       30.15S
Great Falls    MOSUNNY   48  23  37 NW10      30.16F
Calgary        MOSUNNY   46   7  19 NW13G21   30.12S



USA.gov is the U.S. government's official web portal to all federal, state and local government web resources and services.